COSMOS 2526

Last updated on Fri Dec 19 2025 00:02:52 GMT+0000 (Coordinated Universal Time)

1 43432U 18037A 25352.65067521 -.00000320 00000+0 00000+0 0 9998 2 43432 0.0318 47.5676 0000548 7.3577 34.8830 1.00270301 28157
UTC large
Height (km)
Speed (km/s)
/
Latitude / Longitude
Inclination (degrees)
Orbital Period (minutes)
Azimuth
Elevation
Range (km)
Doppler Factor

Next 0 passes for location: London (51.5072 / 0.1276)

Sorry there are no passes over London.